Theta_e
342 342 325 319 319 318 319 318 318 317 317 317 317 317 319 322 324 326 326 327 329 331 332 332 331 332 332 331 330 328 326 321 316 313 310 310 310 311 312 311 312 312 323 332 323 316 317 315 318 318 317 315 313 314 314 314 313 313 313 313 314 314 314 316 320 323 324 325 325 324 323 324 322 321 321 321 320 320 320 320 320 320 320 320 319
341 345 331 320 319 318 319 318 318 317 316 317 317 318 320 323 325 326 327 329 331 332 332 331 329 330 330 329 326 323 321 315 312 309 308 311 310 316 319 318 320 321 326 328 318 316 315 315 316 315 315 313 314 314 314 314 314 314 314 314 313 314 315 320 324 326 327 328 329 328 328 329 327 322 322 322 322 323 323 324 323 323 323 322 322
338 345 337 322 319 319 318 318 318 317 317 317 317 318 321 323 325 325 327 329 332 333 332 329 327 329 329 327 323 318 314 311 310 308 309 309 310 321 323 322 324 325 328 323 315 316 314 315 314 314 314 313 314 313 314 314 314 314 314 314 313 315 318 324 326 328 329 329 329 329 330 331 332 324 321 323 324 325 325 326 325 326 325 325 325
336 343 341 324 318 319 318 319 317 317 317 318 318 319 321 323 324 324 327 330 332 332 331 328 325 328 328 325 320 315 311 310 311 309 309 308 314 324 320 320 321 318 323 320 314 315 314 314 313 314 314 314 314 313 314 313 314 314 313 314 315 318 322 325 327 329 330 330 330 330 330 331 333 325 321 324 325 326 327 327 326 326 327 327 327
338 340 337 322 318 319 318 319 317 317 318 319 318 319 323 324 324 324 328 331 331 331 330 327 325 327 325 322 319 314 310 311 313 311 310 309 320 327 324 327 326 319 320 320 315 315 314 313 313 314 314 314 314 314 314 313 314 313 314 315 317 320 323 325 327 329 329 330 330 330 330 332 332 325 322 324 325 326 326 326 326 327 328 329 329
340 337 329 319 318 319 318 319 318 318 318 319 318 318 323 325 323 325 329 330 330 330 328 326 327 326 323 321 319 316 312 311 312 313 313 315 326 330 329 331 330 324 319 318 316 314 314 313 314 314 314 314 314 314 313 314 313 314 316 317 319 322 326 326 326 327 328 329 329 329 331 332 331 325 324 324 324 325 325 326 327 328 329 329 329
341 336 322 317 319 318 318 319 318 318 318 319 319 318 320 323 324 325 328 328 329 328 326 326 327 325 322 321 319 318 314 311 311 315 316 320 329 331 330 331 332 328 320 317 315 314 314 313 314 314 313 314 313 314 313 313 313 316 318 318 321 326 329 329 327 327 327 328 328 328 329 331 331 327 324 325 325 325 326 327 328 329 329 329 329
343 337 321 316 319 317 319 318 319 318 318 319 319 318 319 322 324 326 326 326 326 324 325 326 325 323 321 319 319 318 313 311 311 315 317 322 330 331 331 332 333 329 319 316 314 314 314 314 314 313 314 313 313 313 313 313 315 318 318 319 324 327 329 330 330 329 329 330 330 329 329 330 330 327 325 325 326 326 327 328 329 329 329 329 328
343 340 324 316 318 317 319 318 320 318 318 319 318 318 319 321 323 325 324 324 324 323 324 323 320 320 319 316 316 316 312 310 311 315 319 322 326 330 333 334 333 328 317 314 315 314 314 314 314 313 314 313 313 313 313 314 317 319 317 318 323 327 328 330 330 330 331 331 332 331 330 330 330 328 327 326 326 327 328 328 329 328 327 326 326
342 340 325 315 318 318 319 319 320 319 318 319 318 318 319 320 321 322 322 323 324 325 324 320 318 317 316 314 313 312 310 310 310 314 319 323 324 328 332 333 331 323 314 314 314 314 314 313 314 313 313 313 313 313 314 315 318 319 316 316 322 327 328 329 330 330 331 332 333 332 330 330 331 330 328 326 327 328 328 329 329 328 326 325 324
338 332 321 316 319 319 320 319 319 319 318 319 318 318 318 319 320 320 321 323 325 326 323 318 316 315 313 313 311 310 309 310 310 312 318 322 324 327 329 330 328 318 314 314 314 314 314 313 313 313 313 313 313 314 314 316 318 318 315 314 321 328 328 329 329 331 332 332 333 332 330 330 331 331 329 326 327 329 329 330 330 329 327 326 325
335 326 319 318 320 321 320 319 319 319 318 318 318 318 318 318 319 319 321 323 325 326 322 315 314 313 313 312 310 310 309 310 310 311 316 321 323 325 325 326 322 316 314 313 313 314 313 313 313 313 313 313 314 314 315 317 318 316 313 315 323 328 329 329 329 331 331 330 332 331 330 330 331 331 328 327 329 330 330 330 330 329 328 326 326
338 331 323 320 320 322 320 319 319 319 318 318 318 318 317 318 320 320 321 323 323 322 319 314 312 312 312 312 310 310 310 309 310 311 313 318 320 320 320 319 316 314 313 313 313 313 313 313 313 313 313 313 314 314 316 318 317 315 313 314 323 329 329 330 330 331 331 331 331 330 330 330 331 330 329 329 330 331 331 330 330 328 327 327 327
341 335 326 320 321 323 320 319 319 319 319 318 318 318 317 319 320 319 321 321 319 317 315 312 312 312 312 312 311 310 310 310 310 311 311 314 315 316 316 314 314 313 313 313 313 313 313 313 313 313 313 313 314 316 317 317 315 314 313 312 321 329 330 330 331 332 333 331 331 330 330 331 330 329 329 330 330 331 331 330 329 328 327 327 326
342 335 325 321 322 322 321 319 320 320 320 319 319 318 317 320 319 318 319 318 316 313 311 311 311 312 312 312 312 310 310 309 310 311 311 312 313 314 314 313 313 313 312 313 313 313 313 313 313 313 314 315 316 317 316 315 313 313 312 311 315 323 328 330 332 333 334 332 331 330 330 330 330 330 330 330 330 330 331 330 329 328 327 327 327
343 338 328 322 322 322 321 320 321 321 321 320 319 318 318 319 318 317 317 316 313 311 310 310 311 312 312 312 311 311 310 310 310 311 311 311 312 313 313 313 313 313 312 312 313 313 313 314 314 315 316 316 315 314 313 312 312 311 312 311 313 319 324 330 332 333 333 332 332 332 331 331 329 329 330 330 330 330 330 329 329 328 328 328 328
344 342 333 324 321 322 322 322 323 323 323 321 321 320 319 319 319 318 316 315 312 310 309 310 311 311 311 312 311 311 310 310 310 311 311 311 311 312 312 313 313 313 313 313 313 313 314 315 316 316 315 314 313 312 311 310 311 312 312 313 319 326 328 330 332 331 332 332 333 333 332 331 330 329 329 328 329 329 329 329 329 328 329 328 328
340 338 331 323 321 322 322 323 324 324 323 323 323 322 321 321 320 319 317 315 312 310 309 309 310 310 311 311 311 311 311 310 310 310 311 311 311 311 312 312 312 313 313 314 314 314 315 315 315 314 313 312 311 310 311 313 313 313 314 316 323 331 331 332 332 331 332 332 332 333 332 330 329 329 328 327 328 329 329 329 329 329 329 329 328
335 332 329 323 321 323 324 325 325 324 323 323 324 322 322 322 320 319 318 314 311 309 309 309 309 310 310 311 311 311 311 310 309 309 310 311 311 311 312 312 312 312 313 314 314 314 314 313 313 311 311 310 310 314 318 321 320 319 321 323 326 330 333 333 332 332 332 332 333 333 331 329 329 329 327 327 328 329 329 329 329 329 329 329 329
336 335 335 326 320 322 326 327 325 324 324 323 324 323 322 322 321 319 317 314 310 309 309 309 309 309 310 311 312 312 312 311 310 310 310 310 310 310 311 311 312 312 312 313 312 312 311 311 310 310 311 310 315 323 329 330 328 327 328 329 330 332 333 334 333 332 333 333 333 333 330 329 329 328 328 328 328 329 329 329 329 329 329 329 329
340 340 340 333 324 323 328 328 326 327 327 326 326 324 323 322 322 320 316 313 309 309 309 309 309 309 311 312 312 313 312 312 311 310 310 310 310 310 310 310 311 310 311 311 311 311 310 311 311 311 311 313 321 331 333 333 332 332 332 333 334 334 334 334 333 333 333 333 333 332 330 329 329 328 328 329 329 329 329 329 330 330 330 330 330
341 341 340 338 334 329 329 329 328 330 331 330 330 328 325 322 321 320 315 312 309 309 309 309 309 310 311 313 315 317 318 318 316 313 311 311 310 310 310 310 310 310 310 310 310 310 311 311 312 314 319 323 328 333 334 334 334 334 334 334 334 335 334 333 334 334 334 333 332 331 329 328 328 328 329 329 330 330 330 330 331 330 329 329 330
342 341 339 339 340 337 336 333 329 333 334 332 332 332 329 324 321 319 315 311 309 309 309 309 310 311 312 315 320 325 326 326 323 319 316 314 312 311 311 311 311 310 310 311 312 315 316 316 318 324 330 333 333 334 334 335 335 335 335 334 334 334 334 334 334 334 334 332 331 330 329 329 328 329 330 330 330 331 330 331 331 330 329 329 330
342 341 340 339 340 340 341 338 333 336 336 334 335 334 332 329 323 318 315 311 309 309 309 310 311 313 316 320 325 330 331 330 329 327 325 321 316 314 313 311 311 312 315 318 321 324 326 326 328 333 335 336 336 335 335 335 335 335 336 335 334 334 334 334 334 334 334 332 331 329 328 328 328 329 330 330 331 331 331 331 330 330 329 329 329
343 341 340 340 340 341 341 340 337 337 336 337 337 335 334 332 326 319 314 311 309 310 310 311 313 317 322 326 329 331 333 334 332 332 332 329 324 321 318 316 317 321 325 329 330 330 332 334 334 335 336 336 336 335 335 335 334 335 335 335 334 335 335 335 335 334 333 331 329 328 327 328 329 330 330 330 331 330 330 331 330 330 329 329 329
343 342 341 340 341 342 341 339 339 338 337 338 338 336 335 332 327 320 314 312 309 310 310 312 316 321 326 330 331 331 335 336 333 333 335 333 331 328 326 324 326 330 332 332 334 333 334 336 337 336 337 337 336 335 335 334 334 335 335 335 335 334 334 334 334 334 331 328 328 327 327 328 329 329 329 330 330 329 330 330 329 330 329 328 329
342 342 341 341 343 342 341 339 339 339 338 338 338 336 333 331 327 319 314 311 310 310 311 315 320 324 328 331 332 332 334 334 332 334 335 334 334 333 332 331 331 333 333 333 334 335 335 336 336 336 336 336 336 335 335 334 335 335 335 335 335 335 334 334 334 333 330 327 327 328 328 328 328 328 328 329 329 328 329 329 328 330 329 327 328
342 343 341 342 342 342 341 340 340 339 339 339 337 335 333 332 330 323 315 311 313 315 315 319 324 327 330 332 333 334 334 332 332 334 334 334 335 334 333 333 332 333 333 333 333 334 335 335 336 336 335 336 335 335 335 335 334 335 335 335 335 335 334 333 332 332 329 327 327 327 327 328 327 327 327 327 327 327 327 327 327 328 327 325 325
342 342 341 341 342 342 341 340 340 339 339 338 337 336 334 334 334 330 321 317 320 322 322 325 326 328 330 333 335 335 334 334 335 335 334 334 335 335 334 334 333 333 334 334 333 333 335 335 335 335 335 335 335 334 335 335 334 334 334 334 334 334 332 332 331 331 328 326 327 327 326 327 327 326 326 325 325 325 325 324 324 324 323 322 320
342 342 340 341 342 342 341 340 340 338 337 338 338 337 336 335 335 333 329 327 328 327 329 329 327 326 329 334 334 333 334 335 336 336 335 335 336 336 335 335 334 334 334 335 334 333 334 335 335 336 335 335 335 335 335 334 334 334 334 334 333 333 332 332 331 330 328 325 325 326 326 326 326 325 325 324 323 323 323 322 320 318 316 314 312
342 341 340 341 342 342 341 341 339 337 337 339 338 336 336 335 335 333 332 332 330 328 331 332 329 327 331 333 332 332 334 335 336 335 335 336 336 335 335 336 335 335 334 334 333 333 334 335 335 335 335 335 335 335 335 334 334 334 333 333 333 332 332 332 330 329 327 324 324 325 325 325 325 324 323 321 319 318 317 314 311 308 306 304 303
342 341 339 340 341 341 341 340 339 336 337 340 337 335 335 335 334 332 332 332 330 329 334 335 332 331 334 332 330 332 333 334 334 332 333 335 335 335 334 335 335 334 334 333 332 332 333 333 333 335 335 335 335 334 334 333 333 333 333 332 332 332 331 331 330 328 327 325 324 324 324 324 323 321 316 311 309 308 307 304 302 301 301 301 300
343 341 339 340 341 341 340 340 339 336 337 339 337 335 336 336 332 329 331 331 330 332 335 335 334 335 334 332 331 333 333 333 332 330 331 333 334 334 334 335 334 333 333 331 330 330 331 331 331 334 335 334 334 333 333 333 332 332 332 332 331 331 331 330 330 328 326 325 325 324 323 322 319 314 307 303 302 302 301 301 301 301 300 300 300
343 342 340 340 340 340 340 339 338 335 337 339 337 335 336 335 330 328 331 331 330 333 334 334 335 335 332 331 333 334 333 333 332 331 331 331 334 335 334 334 333 332 331 328 328 329 330 330 331 334 333 333 333 332 332 333 332 332 331 331 330 330 330 329 328 327 326 325 324 324 323 320 313 306 302 302 301 301 301 301 301 301 300 300 300
343 342 341 340 339 340 339 339 337 335 337 339 337 335 334 332 331 330 332 333 332 332 333 335 336 334 330 332 334 333 332 332 331 331 330 330 332 334 333 332 331 330 330 328 327 327 329 329 331 333 332 332 333 332 332 332 332 331 330 330 329 329 328 327 326 326 326 325 324 324 320 312 305 301 301 301 301 301 301 301 301 300 300 300 299
344 342 341 340 339 339 339 339 337 335 336 338 337 335 333 332 333 333 333 334 332 331 333 336 336 333 330 332 334 333 332 332 331 330 331 330 331 331 331 331 330 328 328 327 326 328 329 330 332 333 332 332 331 331 331 331 330 328 327 328 327 326 325 324 324 324 324 324 323 319 310 303 301 301 301 301 301 300 301 300 300 300 300 299 299
344 343 341 340 340 339 339 338 338 335 335 338 338 334 333 334 335 333 333 334 332 332 335 337 336 334 332 333 333 333 332 332 332 331 331 332 331 331 332 331 331 330 331 330 331 333 332 331 333 332 331 331 331 330 330 329 328 325 324 325 325 324 323 323 324 323 322 322 318 308 302 301 301 301 300 301 300 300 300 300 300 300 300 300 299
344 342 342 341 340 339 339 338 338 335 334 337 337 333 332 335 335 332 332 333 331 333 337 337 336 333 333 334 333 334 333 332 332 331 331 331 331 331 331 331 332 332 332 331 333 334 332 330 332 332 331 331 331 331 330 329 328 325 323 324 324 323 323 323 323 322 319 316 308 301 300 301 300 300 300 300 300 300 300 300 300 299 299 300 299
344 343 342 342 340 339 339 338 337 335 334 335 334 332 331 332 333 333 334 332 332 336 337 337 336 335 335 335 334 334 333 333 332 332 331 331 331 330 329 330 331 332 331 330 332 332 331 329 330 332 331 331 331 331 330 329 328 324 323 323 324 323 323 323 322 318 313 308 302 300 300 300 300 300 300 300 299 299 299 299 299 299 299 299 298
344 343 342 342 340 340 339 339 337 335 334 333 331 330 331 332 333 335 335 333 334 337 337 336 337 336 336 336 335 334 333 333 333 332 331 331 331 330 328 329 330 331 330 331 331 330 330 328 328 330 330 331 331 330 330 330 326 321 321 324 323 323 323 320 315 310 306 302 301 301 301 300 300 300 300 300 299 299 299 298 298 298 298 298 298
344 343 342 341 341 340 340 339 338 336 333 330 327 326 328 332 335 336 336 335 336 337 337 337 338 336 336 336 335 333 333 333 333 332 331 331 331 330 329 329 330 330 331 331 330 328 328 327 328 329 329 330 330 330 329 327 323 320 321 323 322 322 320 314 309 306 304 303 302 302 303 303 301 300 300 300 299 298 298 298 298 298 298 298 298
344 343 342 341 341 341 341 340 338 335 331 326 324 324 328 333 335 336 336 336 337 337 337 337 337 336 336 335 335 333 333 333 333 332 332 332 331 329 330 330 330 330 331 330 327 327 328 328 328 328 328 329 329 328 325 321 322 321 321 321 321 320 316 311 309 306 304 304 304 304 304 304 302 300 301 300 299 299 298 298 298 298 298 298 298
343 342 341 341 341 341 341 340 338 334 329 325 324 325 330 334 335 336 336 336 337 337 336 336 336 336 336 335 334 334 333 333 332 332 332 332 332 331 331 331 331 330 330 329 329 330 330 327 327 327 328 328 328 328 324 321 324 324 322 322 322 319 315 311 309 306 305 305 306 305 305 304 302 301 300 299 299 299 299 299 298 298 298 298 298
343 342 342 342 341 341 342 341 338 333 328 326 325 328 332 335 336 337 337 337 336 336 336 336 336 336 336 335 334 334 333 332 332 332 332 332 332 332 331 331 331 330 330 330 330 330 329 326 325 326 328 327 327 328 325 323 325 325 323 325 323 320 318 312 306 305 305 305 305 304 304 304 302 302 301 299 298 298 299 299 298 298 298 297 297
343 342 342 343 341 341 342 341 337 332 328 327 328 331 335 336 337 337 337 337 336 336 337 337 336 336 335 334 333 333 333 333 333 333 333 333 332 332 331 330 330 330 330 328 327 327 327 327 324 325 327 326 326 328 324 323 326 325 324 326 324 321 322 314 305 305 306 305 304 303 302 301 301 301 301 299 298 298 299 300 299 298 298 297 297
343 342 342 343 342 341 342 342 339 333 329 329 331 334 337 337 336 337 337 337 336 335 336 335 335 335 335 333 333 333 333 334 334 333 333 333 332 331 329 329 328 329 329 327 327 326 325 327 326 325 326 326 326 326 323 320 324 326 325 327 325 322 324 317 307 306 307 306 306 303 299 299 299 300 300 299 298 299 299 300 299 298 298 297 297
344 342 342 342 342 342 341 341 339 334 330 331 334 336 337 337 336 337 337 337 336 335 335 335 335 335 333 332 333 334 334 334 334 333 333 332 330 329 327 327 328 328 327 326 327 326 324 325 326 326 324 324 323 324 322 319 321 324 324 326 325 321 321 317 311 310 308 307 307 304 301 300 299 299 300 299 299 299 299 299 299 298 298 298 298
344 342 341 342 343 342 341 341 339 334 331 333 336 337 337 337 337 337 337 336 335 335 336 336 335 334 332 332 333 334 333 333 333 332 332 330 328 327 327 328 328 327 326 326 327 325 322 321 322 322 321 319 320 322 321 317 317 316 316 322 325 320 318 316 314 314 312 310 309 306 305 305 304 303 302 301 300 300 300 300 300 300 299 298 298
343 342 341 342 343 342 341 341 340 336 333 335 338 338 337 337 338 338 337 336 336 336 336 336 335 332 331 332 333 333 333 333 332 331 330 328 327 327 327 327 327 326 325 326 324 321 319 317 316 317 316 315 317 318 314 309 308 309 311 319 322 318 316 316 314 314 313 311 310 309 309 307 307 306 305 302 300 300 301 301 301 301 300 299 298
343 341 341 342 343 342 341 342 341 338 336 337 338 338 338 338 338 338 337 337 336 336 335 334 332 330 331 333 333 333 333 332 331 330 329 328 327 327 327 326 325 325 324 323 320 316 316 315 313 313 312 312 313 312 308 304 304 305 307 312 313 314 317 316 314 313 311 309 308 309 308 306 307 307 305 303 301 301 302 301 301 301 300 300 299
342 341 341 342 342 342 342 342 341 339 338 338 339 338 338 338 338 338 337 337 336 335 334 332 330 329 331 333 333 332 332 331 330 329 328 328 327 327 326 325 324 323 321 318 315 314 313 312 311 309 308 308 308 307 305 304 303 303 303 304 305 309 313 313 313 312 309 308 307 307 307 306 307 307 305 304 302 301 302 302 301 301 301 300 299
Wind_Speed
18 15 15 14 13 14 13 13 11 11 11 11 11 12 14 13 12 11 11 11 11 11 9 9 8 8 7 6 6 6 5 5 6 6 7 8 10 10 11 12 13 16 18 17 20 22 23 23 23 23 22 21 20 18 17 16 16 16 15 14 14 15 14 14 13 13 13 14 15 17 18 19 19 18 18 18 18 17 17 16 16 16 16 16 16
21 17 15 14 14 14 14 13 12 12 11 11 12 13 14 13 13 11 11 11 11 11 10 9 8 8 6 6 6 6 6 6 7 8 10 11 12 11 12 13 14 16 17 18 22 24 24 24 23 23 22 21 19 17 16 15 15 14 14 13 14 14 13 13 13 14 15 15 14 16 17 17 18 18 17 17 17 17 17 17 17 17 16 16 16
20 19 16 15 15 14 14 13 13 12 12 12 12 13 14 14 13 12 12 12 11 10 9 8 8 7 6 6 7 7 7 8 8 10 12 12 12 12 12 13 14 15 16 20 23 24 24 24 23 23 21 20 18 16 15 15 14 13 12 12 13 13 13 14 14 15 15 15 15 14 15 16 18 18 18 18 18 18 18 18 18 18 17 17 18
17 18 17 17 17 15 15 14 13 12 12 12 13 14 14 15 14 13 13 12 11 10 9 7 7 6 5 6 7 8 9 10 11 12 13 13 12 12 13 13 13 15 16 21 24 24 24 24 23 22 20 18 17 16 15 14 13 12 12 12 12 13 13 14 15 15 15 15 14 13 14 15 17 18 18 18 18 17 17 17 17 18 18 18 18
16 17 18 19 18 16 16 15 14 13 13 13 13 14 15 15 14 14 13 12 11 9 8 7 7 6 5 6 8 10 11 11 12 13 12 13 13 13 14 13 13 14 16 20 23 24 24 23 22 21 19 17 16 15 14 12 11 11 11 12 12 13 13 14 14 14 14 13 12 12 13 15 15 17 18 18 17 17 17 17 17 17 17 17 17
15 15 19 20 19 17 16 15 14 14 14 14 14 14 15 15 15 14 14 13 11 10 8 7 7 5 4 5 7 9 10 11 11 12 13 14 16 14 14 14 13 14 16 19 22 23 23 22 21 19 18 16 15 13 12 11 10 11 11 11 12 13 13 13 14 14 13 13 11 11 12 13 13 15 18 17 17 17 17 17 16 16 16 16 16
14 15 19 20 19 18 17 16 15 14 14 14 14 14 15 15 15 14 14 13 12 10 8 8 7 5 4 6 8 8 9 9 10 11 13 15 16 14 14 15 14 13 16 19 21 22 22 20 19 18 16 15 14 12 11 10 10 10 11 12 13 14 13 12 13 13 12 11 11 11 11 10 10 14 17 17 18 18 18 17 16 16 16 16 16
14 15 18 20 20 19 17 17 16 15 14 14 14 14 14 15 15 14 13 13 12 11 9 8 7 5 5 6 7 7 8 8 9 10 12 15 16 15 14 14 14 13 17 19 20 22 21 19 18 17 15 14 12 11 10 9 9 10 11 12 13 14 13 12 12 12 10 10 10 11 10 9 9 13 17 17 18 18 17 16 15 15 15 16 16
13 16 19 20 20 19 18 17 16 15 15 14 14 14 14 15 14 14 13 13 12 11 10 9 7 6 5 6 6 6 7 8 8 10 11 13 15 16 15 14 13 14 18 19 19 21 20 18 17 15 14 13 11 10 9 8 9 9 10 11 12 13 13 12 11 10 8 7 6 7 9 8 10 13 17 18 17 17 16 15 15 15 15 16 16
14 18 21 22 20 19 18 17 16 15 15 14 14 14 14 15 14 14 14 13 12 11 10 9 8 7 6 6 7 7 7 8 8 9 11 12 13 15 15 14 14 15 19 19 19 20 19 17 16 15 13 11 10 9 8 7 8 8 9 11 11 12 11 11 10 9 7 5 4 4 8 9 11 13 17 18 17 17 16 16 15 16 17 16 16
15 20 22 22 21 19 18 17 16 15 15 14 14 14 14 14 14 14 14 13 12 11 10 9 8 8 8 8 9 9 8 8 8 9 11 12 13 13 13 13 15 17 19 18 19 19 17 16 14 13 12 10 9 8 7 7 7 7 8 10 11 11 11 9 7 5 3 3 3 3 8 10 12 13 16 17 16 16 16 16 16 16 16 16 16
13 18 20 22 22 19 18 16 16 15 14 14 14 14 13 14 14 14 14 13 12 11 10 9 9 8 9 9 9 10 9 9 8 9 10 11 11 12 13 14 17 19 19 19 19 18 16 15 13 12 10 9 8 6 6 5 6 6 8 9 10 10 9 8 6 5 3 4 3 3 9 10 12 13 15 16 15 15 15 15 15 15 15 15 16
11 13 16 20 21 19 18 16 16 15 14 14 14 14 13 13 13 14 13 12 12 11 10 9 10 9 9 9 9 9 9 9 8 9 10 11 11 12 14 16 18 19 18 18 18 17 15 14 12 11 9 8 6 5 5 4 4 5 7 8 9 8 7 6 6 8 7 4 1 5 9 11 12 13 14 14 14 14 14 15 14 14 14 15 16
10 11 14 20 21 19 18 16 16 15 14 14 14 14 13 13 13 13 12 11 11 10 10 9 10 10 10 10 9 9 9 9 9 9 10 11 12 12 14 16 18 18 18 18 17 16 14 13 11 9 8 7 5 5 4 3 3 4 6 6 7 8 6 4 5 9 6 2 3 5 8 10 11 12 13 13 13 13 13 13 14 14 15 15 16
9 10 13 19 21 19 18 16 16 15 15 14 14 14 13 13 12 12 12 10 10 10 10 10 10 10 10 10 9 9 10 9 9 9 10 11 13 13 14 15 17 17 17 16 16 15 13 12 10 8 7 6 5 4 3 2 3 4 5 6 5 6 4 3 5 8 4 2 4 5 8 10 11 12 11 11 11 11 11 12 13 13 14 15 16
9 8 10 16 20 19 18 17 16 15 14 14 14 13 13 13 12 12 11 10 10 10 10 10 10 10 10 10 10 10 10 10 9 10 10 11 12 14 14 15 15 16 16 15 14 13 12 11 9 8 6 5 4 3 3 3 3 4 6 5 4 4 3 2 4 4 2 4 5 5 8 10 11 11 10 10 10 10 10 11 12 13 13 14 15
11 11 10 14 19 19 18 17 16 15 14 14 13 14 13 13 12 12 11 11 10 10 11 11 11 10 10 10 10 10 9 10 9 9 10 10 11 12 13 13 14 14 14 13 12 11 10 9 8 7 6 5 4 3 3 3 4 5 6 5 5 4 2 2 1 1 2 4 5 5 8 10 10 9 9 9 9 10 10 10 11 12 12 13 13
10 11 10 13 19 19 18 17 16 15 14 14 14 13 12 12 12 12 11 11 10 10 11 11 11 10 10 10 10 10 9 9 9 9 9 10 10 10 11 12 12 12 11 11 10 9 9 8 7 6 5 4 4 4 4 4 5 6 7 5 5 4 2 2 1 2 3 5 6 6 8 10 9 9 9 9 10 10 10 10 11 11 12 12 12
9 8 8 12 19 20 19 17 16 15 13 14 14 13 12 11 11 11 11 11 11 11 11 11 11 10 10 10 11 10 10 9 9 8 8 9 9 9 9 10 10 10 9 8 8 7 6 6 5 5 4 4 5 5 5 7 7 8 7 6 5 3 2 1 3 3 4 6 6 6 8 9 8 8 8 9 9 9 10 10 10 10 11 11 11
8 6 6 10 18 19 19 17 15 14 12 12 12 11 11 11 11 11 11 11 11 11 11 12 11 11 11 11 11 11 10 10 9 8 8 8 7 7 7 8 8 7 7 7 6 5 4 4 4 4 4 4 6 7 8 9 9 8 7 6 4 2 0 1 3 4 6 6 5 6 8 8 7 8 8 8 9 9 9 10 10 10 10 10 11
9 6 5 9 14 16 16 15 15 14 12 12 11 10 10 10 11 11 11 11 12 12 12 12 11 11 12 12 12 11 11 10 9 8 8 7 7 7 6 7 7 6 6 6 5 4 3 3 3 3 4 5 7 8 9 10 9 7 5 4 3 1 3 4 3 5 6 6 5 6 7 6 7 7 8 8 9 9 9 9 9 9 10 10 10
12 9 8 9 12 13 12 13 15 14 12 11 11 10 10 10 10 11 11 11 12 13 13 12 12 12 12 13 12 12 11 10 9 8 7 7 7 7 6 6 7 7 6 6 6 5 4 4 4 5 6 7 7 7 8 8 7 5 3 3 3 1 4 4 3 5 5 5 5 5 5 6 7 7 7 8 9 9 9 9 9 9 9 9 9
14 13 13 11 10 11 10 11 15 14 13 11 10 10 9 10 10 11 11 12 13 13 14 13 13 13 13 12 10 10 11 10 9 7 6 6 6 6 6 7 7 7 7 7 6 6 5 6 7 8 8 7 6 6 6 5 4 4 2 2 2 2 3 3 4 5 5 5 4 4 5 5 6 6 7 8 8 9 9 9 9 9 9 8 9
17 15 18 15 11 13 10 11 13 14 13 11 9 9 9 9 9 11 11 11 13 14 15 14 14 14 13 11 8 9 10 9 8 6 5 5 6 5 5 6 6 7 7 7 7 7 8 8 9 8 7 5 4 5 6 4 2 3 2 2 2 2 3 3 5 5 3 3 3 3 5 5 5 6 7 7 7 8 9 9 10 10 9 8 8
20 18 21 20 16 15 12 11 12 12 12 11 9 9 9 8 9 11 12 12 13 14 15 15 15 14 12 10 7 7 8 8 6 5 5 5 5 5 5 6 7 7 7 7 7 7 8 8 8 7 6 4 3 4 4 2 2 4 4 3 2 2 2 3 4 3 2 2 3 3 4 3 4 5 5 6 7 7 8 9 10 10 10 9 9
20 19 22 22 19 16 14 13 13 12 12 10 8 8 9 8 9 12 13 13 14 15 16 16 15 14 12 10 7 7 6 5 4 5 6 6 5 5 6 6 7 7 7 7 6 6 7 6 5 4 4 5 4 5 4 2 4 5 4 4 2 1 2 3 3 2 2 3 3 2 3 2 3 3 4 6 6 7 8 8 10 10 10 10 9
22 21 22 23 21 19 17 15 13 13 12 9 8 8 7 6 8 12 13 13 14 15 16 16 15 12 11 9 7 6 6 5 4 5 5 7 7 7 7 7 7 6 6 7 6 6 6 4 5 4 4 6 6 5 3 2 5 5 4 5 2 1 3 3 2 2 3 3 2 2 2 2 2 2 2 3 4 5 7 8 9 9 8 8 8
23 22 23 25 22 20 20 17 15 14 12 11 9 8 5 4 7 9 11 12 14 14 15 15 13 10 9 8 7 5 7 7 5 5 5 6 8 8 8 8 8 7 6 7 6 5 5 4 5 4 5 7 6 5 3 2 5 5 4 4 2 1 2 3 3 3 2 1 1 2 2 2 2 2 2 2 4 4 4 6 6 6 9 9 10
23 22 23 27 24 22 22 19 16 15 14 12 9 9 6 5 5 7 10 11 10 11 12 11 10 11 10 9 8 8 8 6 5 5 6 6 7 7 8 8 8 7 6 5 5 5 4 4 4 4 7 7 5 5 4 3 4 5 4 4 3 2 3 3 3 2 1 1 0 1 1 1 2 3 4 5 6 6 6 7 8 9 12 13 14
23 21 23 29 26 24 23 18 16 16 16 14 12 12 10 9 7 7 9 9 6 8 10 9 10 12 10 9 9 9 8 6 4 4 7 7 8 8 8 8 7 7 6 5 5 5 5 5 5 5 7 8 6 4 5 5 6 6 5 6 4 1 3 3 1 2 2 1 0 1 1 2 4 5 7 8 9 9 10 10 11 12 13 14 15
22 21 23 29 27 25 23 19 18 16 17 17 16 16 15 13 10 9 10 9 6 9 11 9 9 10 9 10 10 9 8 7 5 5 7 7 8 8 8 9 8 7 7 6 6 5 5 7 8 7 8 8 6 5 7 9 10 9 8 8 6 3 2 2 3 4 2 2 1 2 2 3 5 7 8 10 10 10 11 11 12 12 13 14 15
23 21 24 28 26 24 23 21 19 18 19 19 19 18 17 15 12 14 14 11 9 11 13 9 9 9 9 11 10 8 7 7 6 5 6 6 8 9 9 10 8 9 8 7 7 7 6 6 7 8 8 5 5 7 9 12 13 13 12 10 9 7 5 5 5 6 6 5 4 3 4 5 6 8 8 8 9 9 9 10 11 11 12 13 13
23 22 25 29 27 25 24 21 19 20 22 20 19 19 18 16 13 16 16 12 11 12 12 11 10 10 11 11 10 8 8 7 7 7 7 6 7 9 10 10 9 9 9 8 8 7 6 6 9 9 6 5 6 7 11 13 13 13 13 13 13 11 8 7 7 8 8 8 7 7 6 8 8 8 7 6 7 8 9 9 10 11 11 12 13
24 24 26 28 27 26 24 22 20 22 24 20 19 19 18 17 14 16 15 13 14 13 12 12 12 13 12 11 9 8 8 6 7 9 9 7 7 9 9 9 9 9 9 9 9 9 9 9 12 11 7 7 8 9 12 14 13 13 13 13 14 13 11 9 8 7 7 8 8 9 10 10 9 8 6 6 6 8 9 9 9 10 11 12 13
25 27 26 27 27 27 25 23 21 22 26 23 20 20 19 17 14 15 15 14 15 14 13 13 14 14 12 11 10 10 8 6 7 8 9 8 9 10 9 10 10 9 10 11 11 11 11 10 11 10 8 11 12 11 12 14 14 14 14 13 13 12 11 9 8 6 5 5 6 8 9 10 9 8 7 6 6 7 8 9 9 9 10 12 12
27 28 27 26 26 28 25 24 22 22 26 24 23 21 19 17 15 16 16 14 15 14 14 15 15 14 12 12 12 10 9 7 7 8 9 10 10 10 10 10 10 11 12 12 14 14 12 11 12 11 10 14 14 12 13 13 14 14 14 14 12 10 7 6 6 5 4 4 5 6 6 5 6 7 7 7 7 7 8 9 9 9 10 11 11
28 28 28 26 26 28 25 24 23 24 26 26 24 22 20 19 18 18 17 15 15 16 16 15 16 14 12 12 11 10 9 9 8 9 10 11 11 10 11 11 11 13 13 14 16 18 14 14 16 14 13 17 16 14 14 13 12 10 10 11 10 6 4 3 4 4 4 4 4 4 3 3 3 4 5 6 6 7 8 9 9 10 11 11 12
28 28 27 26 26 26 24 24 24 25 27 27 25 23 22 22 20 19 17 16 17 18 16 15 16 14 13 12 11 10 9 10 10 9 11 12 12 13 13 13 14 15 15 16 17 17 15 14 18 17 14 16 17 16 15 13 10 9 8 8 6 4 3 2 3 4 5 4 2 2 2 3 2 3 4 4 6 7 8 9 10 12 12 12 13
29 28 25 25 26 25 24 24 25 26 28 28 26 24 22 22 22 20 17 17 18 18 17 16 16 14 13 12 11 10 9 10 10 11 12 13 13 14 14 14 15 15 16 17 17 15 13 11 18 21 15 13 16 16 14 11 9 8 6 7 6 4 4 4 3 4 4 4 3 1 1 1 2 2 3 3 5 7 8 10 11 13 14 14 13
31 30 25 25 27 26 25 26 26 27 29 30 28 25 23 22 21 20 19 19 19 19 18 17 16 15 13 12 12 10 10 10 11 13 13 14 14 14 14 14 15 15 16 17 16 14 12 11 16 20 17 14 14 14 11 9 7 5 7 6 6 6 5 4 1 0 1 1 2 1 1 1 2 3 3 4 6 7 8 10 11 12 13 13 13
32 31 27 26 29 28 26 27 28 28 32 32 28 26 25 23 22 21 20 20 21 21 20 18 17 15 14 13 11 11 11 12 13 14 15 15 15 15 14 15 15 15 16 16 14 12 10 9 12 16 17 17 14 12 9 7 5 6 9 8 6 6 5 3 1 1 2 1 2 2 2 3 4 4 4 6 7 7 8 10 11 11 12 12 12
33 32 29 28 29 29 28 29 29 31 33 31 28 27 25 22 21 20 20 22 23 22 21 20 18 15 14 12 11 12 14 14 14 15 16 15 15 16 15 15 16 15 15 15 13 12 10 10 12 14 16 16 14 10 7 6 7 6 6 9 9 8 6 5 2 1 0 2 3 4 5 5 5 5 6 7 7 6 7 10 11 12 12 12 12
33 34 31 28 30 31 30 31 31 32 33 30 27 27 24 21 20 19 21 22 23 23 21 20 18 15 13 12 13 14 15 15 15 16 16 16 16 16 15 15 15 15 14 14 14 14 13 11 14 16 16 16 13 9 7 8 9 7 6 8 9 10 10 9 6 3 2 2 3 2 3 4 5 5 7 8 8 7 6 9 12 13 14 14 14
33 34 33 31 32 33 32 32 33 33 33 30 28 26 23 21 20 19 21 23 24 23 21 19 18 16 14 13 14 15 16 16 16 17 17 17 16 16 15 14 14 14 14 15 16 17 15 12 17 19 18 17 15 12 10 11 10 10 9 6 7 10 10 11 10 7 5 3 3 4 3 3 3 4 5 6 7 8 7 7 11 15 16 16 16
35 36 35 34 34 34 33 33 33 34 33 31 29 27 25 24 24 23 23 25 25 24 22 20 19 17 16 15 15 15 15 16 16 17 17 16 16 15 14 14 14 15 15 16 16 15 14 15 18 20 19 17 16 14 14 15 12 10 9 7 7 9 9 10 10 8 5 3 4 3 3 3 2 3 5 6 6 7 8 7 11 15 16 16 16
38 38 36 35 34 34 34 33 34 35 34 32 30 28 27 28 28 28 28 28 27 27 25 23 20 18 18 17 16 15 15 16 17 17 17 16 15 15 15 15 15 15 16 16 14 13 16 18 19 19 19 19 17 15 15 15 13 12 12 10 8 8 9 11 11 8 6 5 3 1 2 3 4 6 7 6 6 8 10 10 13 16 16 15 17
41 38 37 36 35 34 33 32 34 35 35 33 31 31 30 30 29 28 27 28 28 27 25 22 20 19 19 17 16 16 17 17 17 17 17 17 16 17 17 16 16 16 17 17 14 14 18 21 21 19 19 20 18 15 15 14 14 14 14 13 10 6 6 9 8 8 8 7 5 2 3 5 6 8 10 8 5 7 11 13 14 16 16 16 17
42 39 38 38 37 36 33 33 34 35 35 34 33 33 32 31 29 26 26 26 25 24 22 21 20 19 19 18 18 18 18 18 18 18 17 16 16 17 17 17 17 16 17 18 16 17 19 20 20 19 18 19 17 15 15 15 15 15 14 15 13 7 6 7 6 5 5 6 6 4 1 2 3 5 9 9 6 6 11 14 15 16 16 16 17
41 39 38 38 38 37 35 35 35 35 36 36 35 34 32 30 28 26 26 25 23 22 21 21 22 21 20 20 19 19 19 19 19 18 17 16 16 16 17 17 17 16 18 18 18 19 18 16 16 16 15 16 15 14 14 14 15 14 14 15 13 10 9 7 5 5 4 4 5 4 3 1 1 3 8 10 8 8 11 14 14 13 15 17 17
40 39 38 38 39 38 36 37 37 36 37 37 35 34 32 30 28 27 26 25 25 25 23 23 24 23 22 21 20 20 20 20 19 17 17 16 16 16 17 18 17 16 17 18 17 17 16 14 12 13 13 14 14 13 13 13 13 13 13 14 14 13 13 11 9 8 5 4 4 2 1 1 1 0 5 9 10 11 11 12 12 10 12 16 16
40 38 37 39 40 39 38 38 38 37 38 37 36 34 32 30 29 27 27 27 27 27 26 25 25 24 24 23 22 22 22 20 18 17 17 16 15 15 16 17 17 16 15 16 16 15 14 13 12 12 13 13 13 13 12 12 11 11 12 13 13 14 14 14 12 10 8 6 4 3 1 2 0 2 4 8 9 11 9 8 9 8 11 15 16
Wind_Direction
177 183 179 173 173 160 154 148 145 140 134 134 131 125 120 118 117 116 114 111 109 105 99 89 76 64 56 53 51 49 47 48 59 72 84 97 108 115 119 124 127 127 124 123 128 130 129 130 130 129 125 123 121 119 114 108 101 94 88 82 76 71 68 62 59 62 62 59 53 52 50 43 33 27 25 22 19 17 16 14 14 15 17 19 18
171 177 182 175 175 165 156 152 148 143 139 137 134 128 123 122 121 122 120 116 113 108 102 89 74 61 52 49 45 41 37 47 65 82 92 101 107 111 116 121 125 125 126 128 132 131 130 130 129 128 127 126 123 119 114 106 99 92 87 81 75 72 68 64 63 62 58 54 49 47 45 40 30 24 23 20 17 13 13 11 11 13 17 17 17
174 174 182 178 177 169 158 156 151 145 142 140 137 132 128 127 127 128 124 120 117 112 107 91 76 66 56 49 41 42 47 58 77 92 99 105 108 109 111 115 122 123 125 130 132 132 131 130 130 131 129 127 124 119 112 104 98 91 86 78 74 72 68 67 66 62 54 48 45 43 40 35 24 17 18 19 15 13 13 11 10 11 12 13 13
188 182 184 179 176 170 162 159 153 149 145 144 141 136 132 132 131 130 126 123 122 117 110 93 82 78 65 49 40 50 59 65 83 99 106 109 106 106 108 109 117 122 124 129 132 132 132 132 134 133 130 128 122 116 110 104 98 90 83 76 74 71 69 70 69 64 53 43 38 35 31 29 19 12 14 18 16 14 14 11 9 10 11 12 11
195 190 185 178 175 170 164 160 154 152 148 147 144 139 135 134 133 132 130 128 125 121 112 99 90 85 68 47 49 59 63 64 78 100 112 111 106 105 108 111 116 122 126 129 132 133 134 135 136 135 132 127 120 114 108 103 96 88 82 78 76 73 72 72 72 67 56 45 33 27 25 23 15 9 12 16 16 15 14 12 11 10 11 11 9
195 190 182 178 175 170 165 162 157 156 153 150 146 141 138 136 136 135 135 133 129 125 116 108 101 88 64 53 63 64 63 63 70 97 112 107 104 108 114 117 116 121 128 131 133 133 134 136 137 135 132 126 118 113 108 104 96 89 83 80 78 77 78 79 78 71 60 49 36 27 24 22 11 4 9 14 15 14 13 13 14 14 14 10 8
192 187 182 180 176 170 167 165 161 159 155 150 147 142 141 139 138 139 139 137 134 132 125 116 108 92 70 68 74 65 64 67 68 91 111 109 106 115 121 120 116 120 130 133 134 133 135 137 137 136 132 125 120 115 112 106 98 92 86 82 81 82 85 84 83 79 67 46 31 24 21 16 2 359 6 12 13 12 13 14 15 14 14 12 10
187 190 187 183 179 172 169 166 163 160 155 151 146 143 143 141 141 142 142 140 139 136 130 125 115 102 84 74 73 67 68 74 75 85 106 116 118 123 122 118 118 125 133 133 133 134 137 138 137 135 132 127 123 119 115 108 98 92 87 85 84 84 84 82 80 78 69 45 28 19 13 4 350 356 7 11 11 12 12 12 14 13 12 13 11
195 196 189 184 180 173 170 168 164 161 155 151 147 144 143 143 145 145 145 144 141 136 131 127 120 109 90 79 78 77 79 83 86 88 99 114 125 129 126 125 126 131 134 132 132 136 139 139 138 135 133 129 127 123 117 108 98 91 87 88 87 86 82 81 79 75 71 60 52 18 359 357 349 356 7 8 10 11 11 11 12 10 10 12 9
202 194 186 182 178 173 170 169 165 160 155 152 150 148 146 147 149 150 149 146 142 139 134 126 119 109 93 89 92 93 96 96 96 98 102 110 123 129 131 133 133 134 133 130 133 138 140 139 139 136 135 132 130 126 118 108 98 90 86 88 90 90 85 84 81 80 79 80 93 5 345 349 344 350 3 5 8 10 9 9 8 7 6 7 6
192 181 177 178 175 172 170 169 166 160 157 155 153 152 152 152 153 154 152 148 145 142 137 127 120 110 97 93 94 99 102 103 102 104 108 115 123 129 134 137 135 136 134 133 137 141 141 140 140 138 137 136 133 128 120 110 100 89 85 88 94 95 91 86 74 67 73 104 150 330 338 337 336 346 358 4 8 11 10 8 6 4 3 4 5
170 169 171 176 172 171 171 170 167 162 160 159 158 156 156 157 157 157 155 151 147 145 140 130 121 110 100 93 92 99 104 106 106 108 113 118 125 131 136 139 138 138 138 138 141 143 143 143 143 141 140 139 136 130 121 110 99 88 85 91 99 101 97 87 52 34 56 103 141 328 338 335 339 348 356 4 10 11 10 8 5 2 2 4 4
152 163 170 175 169 170 171 170 169 165 164 163 160 159 160 160 160 159 157 155 150 147 142 132 121 112 105 99 98 102 109 113 110 112 115 118 122 130 134 138 139 139 140 142 144 145 145 145 146 145 145 142 138 129 120 106 94 85 85 95 106 111 105 90 47 50 68 74 39 320 334 339 343 348 357 7 11 12 10 7 5 4 6 7 5
152 159 168 174 169 169 169 170 170 167 166 166 163 162 164 162 163 161 158 156 150 144 139 133 125 117 112 107 107 110 116 121 117 116 116 117 120 126 133 137 139 141 142 145 146 146 147 149 150 149 147 144 138 129 119 101 86 83 84 92 114 129 120 96 65 64 69 36 330 312 332 339 341 350 1 7 10 11 7 4 4 6 7 7 6
170 156 164 173 169 167 168 170 168 168 168 166 165 165 169 165 165 163 158 156 148 142 138 136 130 122 117 112 112 115 120 125 123 121 119 119 122 127 133 137 140 143 145 147 148 149 149 151 152 149 147 143 138 131 119 100 83 82 83 88 114 142 144 104 75 68 49 339 341 335 345 345 345 354 1 3 7 7 2 3 3 6 6 6 6
195 178 170 174 174 168 166 169 168 169 169 167 166 168 172 166 164 164 159 157 149 143 141 139 134 127 122 118 115 118 122 127 128 126 125 123 126 130 134 139 142 146 148 150 150 151 150 151 151 149 149 146 143 131 112 88 75 70 76 91 114 139 156 117 75 71 4 321 342 348 352 350 350 355 356 357 1 0 0 3 2 3 4 4 5
203 205 192 181 178 170 166 167 168 169 167 166 166 169 170 165 164 163 160 157 152 146 145 142 138 132 127 122 117 119 122 126 130 129 129 129 130 132 135 139 141 145 148 150 151 151 151 151 150 150 151 146 133 108 88 70 63 62 73 95 120 123 135 116 70 34 291 308 326 331 343 347 350 352 351 353 355 358 0 3 1 360 1 1 4
191 201 198 190 179 169 167 166 168 169 167 165 165 169 167 166 166 164 163 159 155 150 147 146 142 137 129 122 118 119 120 123 129 132 131 131 134 136 138 141 143 146 148 150 153 153 153 151 149 147 141 127 103 84 70 60 60 66 81 105 127 116 81 69 305 291 311 321 322 322 339 346 350 353 351 353 355 358 0 0 359 356 357 359 1
158 171 175 186 180 169 167 167 169 169 169 168 166 170 167 167 169 168 167 161 157 152 151 151 146 139 130 122 119 117 116 117 123 130 130 131 133 137 140 144 148 150 151 154 154 155 154 149 145 137 125 108 96 88 77 68 73 84 97 118 135 129 72 20 292 308 340 335 328 326 339 347 351 352 351 354 357 358 357 357 358 356 356 357 358
142 151 146 173 180 173 169 168 169 167 168 168 168 172 168 166 168 171 170 164 157 154 153 152 147 139 131 124 121 117 114 114 116 120 124 128 131 136 141 143 147 151 152 152 154 155 155 149 140 128 120 113 110 99 87 80 84 97 112 126 136 143 85 286 292 329 343 336 332 330 335 346 351 348 350 353 355 358 357 359 2 1 1 1 359
153 155 146 162 170 174 174 171 169 166 165 166 170 172 168 165 168 173 171 166 159 157 156 152 148 140 133 127 122 117 111 109 111 114 118 123 128 134 141 145 146 149 152 152 158 163 165 161 141 132 125 125 122 103 89 87 92 104 116 118 105 26 283 270 304 347 342 334 329 326 330 343 347 346 351 356 359 2 5 9 10 11 10 7 4
162 156 160 161 157 170 174 177 173 166 167 170 173 169 166 162 166 174 173 169 163 158 156 152 147 140 134 128 123 118 112 107 105 110 119 124 130 137 142 151 152 153 157 157 161 164 165 156 138 136 124 123 125 111 97 92 95 106 107 101 86 337 277 281 330 348 333 330 328 321 332 347 349 354 359 4 10 11 15 18 17 16 14 14 16
167 158 168 169 162 179 180 184 177 168 170 172 178 170 160 158 165 174 174 172 166 161 157 152 147 141 136 130 127 121 110 104 103 108 121 128 131 139 145 150 154 152 153 151 150 145 141 139 134 132 120 117 122 122 118 108 113 110 97 109 106 259 279 314 327 326 316 327 335 331 348 359 359 8 15 20 23 21 24 24 21 20 18 19 22
173 161 174 181 184 198 195 189 179 173 173 171 181 174 161 159 165 171 175 177 171 164 157 153 149 143 140 136 137 130 111 100 102 112 122 127 126 132 141 141 143 138 136 134 132 132 131 133 137 136 126 123 132 133 132 132 144 112 111 140 147 247 300 338 321 313 300 318 329 329 347 2 15 25 26 29 29 26 30 29 22 22 23 19 16
173 162 178 191 199 208 201 189 184 182 178 176 180 176 173 170 173 173 173 180 175 167 159 154 151 146 142 137 138 128 109 97 105 138 137 125 124 129 136 135 138 135 134 130 127 136 135 133 140 147 142 136 132 122 125 117 81 103 130 146 184 250 337 333 313 308 292 319 316 318 341 1 35 40 31 31 29 28 36 33 26 25 25 23 19
179 173 180 192 199 206 200 193 191 189 182 180 177 176 181 174 181 179 171 179 178 169 162 155 152 150 141 131 128 114 114 120 137 172 153 137 145 148 149 147 149 149 149 143 135 150 151 140 141 151 142 118 94 84 95 86 70 98 133 137 180 272 24 335 316 316 309 322 316 333 359 13 47 45 38 39 29 27 39 32 28 28 19 21 21
191 184 181 186 193 197 198 201 197 192 183 176 180 185 187 162 164 172 173 179 175 170 165 157 153 149 139 132 129 120 148 178 181 186 162 156 168 167 168 166 164 161 158 155 147 152 155 147 147 150 126 106 98 78 80 98 80 84 111 122 147 14 40 354 330 314 318 329 338 27 25 28 48 48 47 41 17 20 33 23 30 33 12 12 12
192 184 181 183 190 193 198 206 202 193 176 169 183 183 191 175 146 153 170 179 175 171 164 155 149 147 148 141 137 157 184 189 184 190 184 179 183 178 178 176 175 172 165 165 158 156 148 134 147 141 113 112 110 95 92 107 93 93 104 110 110 39 34 359 339 319 320 333 0 40 40 33 27 19 2 344 346 353 359 354 6 4 337 333 333
185 181 181 184 190 196 201 206 200 188 171 168 180 171 184 205 167 154 165 175 177 166 153 151 157 158 160 151 159 195 205 197 198 203 203 202 198 191 183 180 181 178 174 174 166 169 157 134 148 132 118 117 105 108 112 85 78 96 111 99 92 38 28 23 4 330 314 299 9 43 35 8 350 342 334 328 328 324 322 324 322 317 314 315 317
184 179 181 184 190 200 204 200 193 187 173 169 178 176 186 204 198 187 172 162 166 166 159 164 173 166 162 168 185 206 210 204 213 215 210 211 207 200 193 191 188 178 179 180 169 172 167 147 145 130 123 116 97 116 126 108 102 110 119 111 111 56 30 45 353 289 288 313 11 30 10 338 335 333 330 327 322 320 320 318 316 314 316 320 324
186 178 178 184 190 200 201 194 193 190 176 174 186 189 191 199 205 209 192 165 164 181 177 178 181 169 166 187 202 207 208 200 194 205 208 209 204 197 195 197 190 175 173 175 176 177 170 158 144 125 118 119 119 136 136 138 144 145 146 134 139 184 198 194 256 286 312 2 345 337 345 333 329 325 324 323 319 319 319 318 320 324 328 332 334
187 179 176 182 190 196 195 193 196 190 177 183 197 195 193 201 206 207 197 177 177 180 178 187 185 172 176 197 208 207 208 197 182 200 213 205 196 194 193 192 186 175 173 174 178 175 169 167 148 122 116 140 169 161 148 151 157 160 168 165 162 178 199 223 261 293 314 329 326 321 325 324 322 322 326 327 323 323 324 327 333 337 340 342 343
192 183 176 180 189 194 196 197 198 191 179 185 198 193 195 204 202 198 189 176 183 182 183 195 182 175 190 201 209 209 209 199 191 206 215 210 199 198 194 186 184 180 180 183 180 170 164 160 144 130 133 180 207 185 168 168 169 169 177 183 186 192 205 234 266 286 304 314 320 325 325 323 324 329 339 346 338 334 336 340 343 346 348 350 354
196 189 181 181 190 195 199 199 198 192 180 183 195 191 197 204 195 189 184 176 189 195 195 192 181 186 197 203 209 209 209 196 193 203 205 208 203 198 194 189 189 182 178 184 180 171 171 165 146 141 164 196 202 195 189 191 190 189 191 196 201 204 210 226 249 268 294 308 318 325 325 325 329 337 348 354 349 343 343 345 348 353 357 358 1
196 193 188 185 191 195 200 201 198 192 181 183 193 194 200 202 188 186 190 189 197 204 192 183 189 196 199 205 207 206 209 194 190 200 200 203 201 200 200 195 194 188 184 185 183 183 186 178 157 157 186 200 202 202 201 206 210 213 212 211 213 216 221 227 229 233 254 277 298 313 317 323 329 336 343 351 355 350 346 350 354 1 10 9 8
198 197 194 189 192 196 201 202 198 193 184 185 194 198 199 195 186 188 196 200 204 203 185 185 202 204 201 207 207 206 208 196 196 204 201 201 201 206 207 196 190 187 188 189 187 192 191 175 168 174 187 198 214 221 214 219 225 226 223 219 220 225 231 228 224 232 246 263 287 302 312 324 329 332 338 345 354 355 352 358 2 9 22 25 22
200 199 196 192 192 195 202 204 200 196 189 187 196 199 193 189 190 193 199 204 201 193 186 198 211 208 204 207 209 211 207 200 204 207 202 202 200 199 198 194 188 181 181 183 182 185 185 176 178 181 179 194 216 226 225 232 235 232 228 221 220 223 227 224 233 260 289 301 309 310 318 336 334 332 337 342 352 360 0 6 15 17 25 36 36
199 200 199 197 195 195 202 208 204 200 193 191 197 199 192 190 194 198 203 203 193 186 189 203 211 209 207 207 210 213 211 208 209 207 201 201 199 192 191 190 186 182 183 186 185 186 188 185 187 188 187 200 212 219 228 235 235 242 236 218 210 209 216 229 266 293 306 318 341 351 340 345 345 349 351 354 3 9 9 13 24 26 25 34 39
197 200 202 203 200 196 203 210 207 201 196 195 199 200 196 193 196 200 199 195 189 188 193 200 206 209 209 209 210 211 212 212 208 204 201 200 197 192 192 191 186 187 192 195 195 197 201 196 192 195 199 207 209 213 225 231 237 246 223 197 189 192 206 214 254 292 302 323 4 26 6 21 17 10 8 24 29 27 27 25 28 32 29 31 38
198 199 201 206 202 199 205 209 206 202 196 198 200 199 197 195 198 200 196 193 190 192 196 201 207 210 209 208 207 209 210 208 202 198 199 199 197 197 198 194 190 193 197 198 200 205 213 206 191 195 202 203 202 208 223 237 241 211 174 172 179 188 202 208 210 216 232 331 355 357 145 96 48 30 31 51 55 47 46 43 38 38 35 34 39
199 201 201 205 203 203 208 207 206 203 198 200 201 199 200 198 198 201 198 195 194 197 198 200 210 212 208 206 205 204 203 203 199 194 198 199 199 201 202 198 196 200 202 204 210 213 217 209 186 191 205 205 202 209 227 237 212 166 158 164 175 186 194 197 175 104 110 70 25 23 35 37 30 35 37 46 56 59 60 55 51 50 46 40 41
199 203 203 203 202 206 209 207 206 204 200 202 202 201 204 204 202 202 199 197 199 202 202 202 208 210 204 201 196 194 197 200 198 195 198 201 203 204 202 200 200 204 208 214 225 226 229 219 187 188 204 207 206 214 226 206 165 138 149 165 172 174 175 186 208 245 78 60 50 30 16 2 1 20 33 33 39 54 72 67 59 57 54 47 44
200 202 203 201 201 206 208 207 207 204 201 203 203 202 205 206 207 205 201 202 202 203 206 207 207 203 196 192 190 192 195 198 198 198 199 200 205 207 205 205 205 209 216 224 230 230 236 220 184 186 200 203 205 210 208 190 170 154 157 172 178 172 172 189 204 209 188 111 96 74 12 353 354 8 24 25 21 27 55 68 62 57 51 45 44
199 200 201 200 202 205 206 206 207 205 202 202 204 205 205 205 205 205 205 205 204 204 206 206 203 200 197 196 197 197 198 200 202 203 203 204 206 209 211 211 212 217 224 228 227 225 227 206 179 184 200 204 201 199 195 195 196 185 170 170 184 184 187 193 190 182 179 176 182 201 251 310 342 1 23 26 14 16 30 50 57 54 44 38 39
199 200 201 200 201 204 205 206 207 205 203 203 203 204 203 202 201 202 204 204 205 204 204 203 202 203 203 204 206 206 205 206 209 209 208 210 210 212 217 219 222 226 226 225 221 214 208 194 183 187 202 212 205 199 198 198 207 203 183 175 187 199 206 193 177 170 176 197 212 218 254 290 320 351 20 37 27 27 37 39 47 47 36 30 34
200 202 203 202 202 203 204 207 208 205 204 203 203 203 203 203 204 204 205 205 205 207 208 210 209 207 206 207 210 212 210 207 209 212 213 216 218 222 227 229 230 228 225 222 214 204 196 190 192 195 202 214 213 209 208 204 207 207 199 200 208 216 207 188 177 173 177 199 236 235 66 41 31 16 10 28 41 45 51 43 41 41 29 25 29
200 201 203 203 203 202 204 206 208 206 204 204 204 204 205 206 208 211 211 211 210 211 213 215 213 210 209 211 213 212 211 211 213 216 218 221 225 230 233 232 230 225 221 218 211 207 201 192 198 204 202 206 211 214 218 218 215 213 212 214 222 227 199 192 194 185 180 196 227 212 89 57 48 35 19 24 38 49 56 46 37 33 23 21 22
197 200 202 203 202 202 204 207 207 206 205 205 206 206 207 208 208 211 215 215 215 215 215 217 218 215 212 212 213 213 214 216 219 223 224 224 227 232 233 231 227 222 219 217 211 210 208 199 202 209 205 204 208 212 218 222 219 219 220 218 220 220 199 208 219 205 197 203 213 217 180 33 32 23 18 23 16 28 50 42 29 22 14 12 10
197 200 201 201 202 202 204 206 206 205 205 207 208 208 209 210 208 209 212 212 213 217 219 221 222 217 212 210 212 214 217 219 221 224 225 225 227 228 229 229 228 222 218 215 210 206 208 206 205 209 211 212 214 214 215 214 211 210 209 208 212 209 193 195 206 211 223 219 219 224 222 271 327 343 7 19 15 19 39 36 22 10 2 360 357
198 200 199 200 203 203 203 205 205 205 206 208 209 209 209 209 208 209 211 210 210 214 218 221 221 215 208 209 212 215 217 218 219 221 222 224 226 225 225 229 229 221 211 207 203 200 204 208 209 211 216 220 222 222 216 208 204 200 196 198 202 199 192 191 196 201 201 210 228 221 183 328 0 11 1 11 17 24 37 35 20 360 347 346 348
196 197 197 200 204 204 203 205 205 205 207 209 209 210 210 209 210 211 212 212 212 213 215 218 219 213 207 208 212 215 216 215 217 220 223 225 226 225 225 224 222 213 202 198 196 196 201 206 210 214 217 218 220 222 217 209 205 201 197 198 198 198 200 201 203 204 199 189 180 164 184 292 220 109 11 8 25 33 42 36 11 343 328 332 341